Location: Unspecified
(0.0000°N, 0.0000°E)
Time: 17:31:49
(UTC+00:00)

STARLINK 1039 - Pass Details

Date: 23 January 2020
Orbit: 549 x 551 km, 53.0° (Epoch: 23 January)

Event Time Altitude Azimuth Distance (km) Brightness Sun altitude
Exits shadow 04:21:10 55° 137° (SE) 663 4.2 -25.9°
Maximum altitude 04:21:22 55° 124° (SE) 658 4.2 -25.9°
Drops below altitude 10° 04:25:24 10° 46° (NE) 1,811 6.5 -24.9°
Sets 04:27:39 0° 41° (NE) 2,701 7.4 -24.4°
